When you browse on this site, cookies collect data to enhance your experience and personalize the content and advertising you see.
Visit our Privacy Policy to learn more. By continuing to use the site, you agree to this use of cookies and data.
  • In Sweden
  • List of Countries
  • For 7 days
  • Water Temperature
  • Satellite Maps
  • Weather Map
  • Weather Widgets
  • user-avatar
    Login

    Hourly Weather La Massana

    Today, 17 July, Wednesday

    Time Temperature Precipitation Wind Pressure Humidity
    00:00 +11°C° 0 mm 1 mps 611 mmHg 80%
    01:00 +11°C° 0 mm 1 mps 611 mmHg 80%
    02:00 +11°C° 0 mm 1 mps 611 mmHg 79%
    03:00 +10°C° 0 mm 1 mps 610 mmHg 79%
    04:00 +11°C° 0 mm 1 mps 611 mmHg 77%
    05:00 +12°C° 0 mm 1 mps 611 mmHg 76%
    06:00 +12°C° 0 mm 0 mps 612 mmHg 74%
    07:00 +15°C° 0.1 mm 1 mps 613 mmHg 69%
    08:00 +16°C° 0.1 mm 1 mps 613 mmHg 64%
    09:00 +19°C° 0.1 mm 1 mps 614 mmHg 59%
    10:00 +19°C° 0.5 mm 1 mps 614 mmHg 62%
    11:00 +19°C° 0.5 mm 1 mps 613 mmHg 64%
    12:00 +18°C° 0.5 mm 1 mps 613 mmHg 66%
    13:00 +18°C° 1.1 mm 1 mps 613 mmHg 71%
    14:00 +16°C° 1.1 mm 1 mps 612 mmHg 77%
    15:00 +15°C° 1.1 mm 1 mps 612 mmHg 82%
    16:00 +15°C° 0.5 mm 1 mps 611 mmHg 83%
    17:00 +15°C° 0.5 mm 1 mps 611 mmHg 83%
    18:00 +15°C° 0.5 mm 1 mps 611 mmHg 84%
    19:00 +14°C° 0.1 mm 1 mps 611 mmHg 87%
    20:00 +12°C° 0.1 mm 1 mps 611 mmHg 91%
    21:00 +10°C° 0.1 mm 2 mps 611 mmHg 94%
    22:00 +11°C° 0 mm 1 mps 611 mmHg 94%
    23:00 +11°C° 0 mm 1 mps 611 mmHg 95%

    Tomorrow, 18 July, Thursday

    Time Temperature Precipitation Wind Pressure Humidity
    00:00 +11°C° 0 mm 1 mps 611 mmHg 95%
    01:00 +10°C° 0 mm 1 mps 611 mmHg 95%
    02:00 +10°C° 0 mm 1 mps 611 mmHg 95%
    03:00 +10°C° 0 mm 1 mps 610 mmHg 94%
    04:00 +10°C° 0 mm 1 mps 611 mmHg 93%
    05:00 +11°C° 0 mm 1 mps 611 mmHg 92%
    06:00 +11°C° 0 mm 1 mps 611 mmHg 91%
    07:00 +13°C° 0 mm 1 mps 612 mmHg 85%
    08:00 +15°C° 0 mm 1 mps 613 mmHg 78%
    09:00 +16°C° 0 mm 1 mps 614 mmHg 72%
    10:00 +18°C° 0.1 mm 1 mps 614 mmHg 70%
    11:00 +17°C° 0.1 mm 2 mps 614 mmHg 69%
    12:00 +18°C° 0.1 mm 2 mps 614 mmHg 67%
    13:00 +17°C° 0.5 mm 2 mps 614 mmHg 70%
    14:00 +17°C° 0.5 mm 2 mps 613 mmHg 73%
    15:00 +18°C° 0.5 mm 1 mps 613 mmHg 77%
    16:00 +16°C° 0.3 mm 1 mps 613 mmHg 78%
    17:00 +16°C° 0.3 mm 1 mps 612 mmHg 80%
    18:00 +15°C° 0.3 mm 1 mps 612 mmHg 82%
    19:00 +14°C° 0.1 mm 1 mps 612 mmHg 86%
    20:00 +13°C° 0.1 mm 1 mps 612 mmHg 90%
    21:00 +12°C° 0.1 mm 1 mps 612 mmHg 94%
    22:00 +11°C° 0 mm 1 mps 612 mmHg 94%
    23:00 +11°C° 0 mm 1 mps 612 mmHg 94%

    Day after tomorrow, 19 July, Friday

    Time Temperature Precipitation Wind Pressure Humidity
    00:00 +10°C° 0 mm 0 mps 612 mmHg 95%
    01:00 +9°C° 0 mm 0 mps 612 mmHg 95%
    02:00 +9°C° 0 mm 0 mps 611 mmHg 95%
    03:00 +10°C° 0 mm 1 mps 611 mmHg 95%
    04:00 +9°C° 0 mm 0 mps 612 mmHg 91%
    05:00 +10°C° 0 mm 0 mps 612 mmHg 87%
    06:00 +11°C° 0 mm 0 mps 613 mmHg 83%
    07:00 +14°C° 0 mm 1 mps 614 mmHg 72%
    08:00 +16°C° 0 mm 1 mps 614 mmHg 60%
    09:00 +20°C° 0 mm 1 mps 615 mmHg 48%
    10:00 +20°C° 0 mm 2 mps 616 mmHg 45%
    11:00 +21°C° 0 mm 2 mps 616 mmHg 42%
    12:00 +23°C° 0 mm 2 mps 616 mmHg 39%
    13:00 +23°C° 0 mm 2 mps 616 mmHg 40%
    14:00 +23°C° 0 mm 2 mps 616 mmHg 40%
    15:00 +23°C° 0 mm 2 mps 615 mmHg 41%
    16:00 +21°C° 0 mm 2 mps 615 mmHg 46%
    17:00 +20°C° 0 mm 2 mps 614 mmHg 52%
    18:00 +20°C° 0 mm 1 mps 614 mmHg 57%
    19:00 +18°C° 0 mm 1 mps 613 mmHg 61%
    20:00 +15°C° 0 mm 1 mps 612 mmHg 65%
    21:00 +13°C° 0 mm 1 mps 611 mmHg 69%
    22:00 +13°C° 0 mm 1 mps 611 mmHg 67%
    23:00 +13°C° 0 mm 1 mps 611 mmHg 65%

    20 July, Saturday

    Time Temperature Precipitation Wind Pressure Humidity
    00:00 +13°C° 0 mm 1 mps 611 mmHg 62%
    01:00 +13°C° 0.1 mm 1 mps 611 mmHg 65%
    02:00 +13°C° 0.1 mm 1 mps 611 mmHg 67%
    03:00 +13°C° 0.1 mm 1 mps 611 mmHg 70%
    04:00 +13°C° 0.3 mm 1 mps 611 mmHg 73%
    05:00 +13°C° 0.3 mm 1 mps 611 mmHg 76%
    06:00 +14°C° 0.3 mm 1 mps 612 mmHg 79%
    07:00 +16°C° 0.1 mm 1 mps 613 mmHg 71%
    08:00 +20°C° 0.1 mm 1 mps 614 mmHg 62%
    09:00 +21°C° 0.1 mm 2 mps 615 mmHg 53%
    10:00 +23°C° 0 mm 2 mps 616 mmHg 48%
    11:00 +24°C° 0 mm 2 mps 616 mmHg 43%
    12:00 +25°C° 0 mm 2 mps 616 mmHg 38%
    13:00 +25°C° 0 mm 2 mps 616 mmHg 39%
    14:00 +25°C° 0 mm 2 mps 616 mmHg 40%
    15:00 +25°C° 0 mm 2 mps 616 mmHg 41%
    16:00 +24°C° 0.1 mm 2 mps 616 mmHg 49%
    17:00 +23°C° 0.1 mm 2 mps 615 mmHg 56%
    18:00 +20°C° 0.1 mm 2 mps 615 mmHg 64%
    19:00 +19°C° 0.1 mm 1 mps 615 mmHg 71%
    20:00 +16°C° 0.1 mm 1 mps 614 mmHg 79%
    21:00 +14°C° 0.1 mm 1 mps 614 mmHg 86%
    22:00 +14°C° 0 mm 1 mps 614 mmHg 84%
    23:00 +14°C° 0 mm 1 mps 614 mmHg 81%

    21 July, Sunday

    Time Temperature Precipitation Wind Pressure Humidity
    00:00 +14°C° 0 mm 1 mps 614 mmHg 79%
    01:00 +14°C° 0 mm 1 mps 614 mmHg 78%
    02:00 +14°C° 0 mm 1 mps 614 mmHg 76%
    03:00 +13°C° 0 mm 1 mps 614 mmHg 74%
    04:00 +14°C° 0 mm 1 mps 614 mmHg 72%
    05:00 +15°C° 0 mm 1 mps 615 mmHg 70%
    06:00 +16°C° 0 mm 1 mps 615 mmHg 68%
    07:00 +18°C° 0 mm 2 mps 616 mmHg 59%
    08:00 +20°C° 0 mm 2 mps 617 mmHg 50%
    09:00 +24°C° 0 mm 2 mps 618 mmHg 41%
    10:00 +25°C° 0 mm 2 mps 619 mmHg 38%
    11:00 +26°C° 0 mm 2 mps 619 mmHg 35%
    12:00 +27°C° 0 mm 2 mps 619 mmHg 33%
    13:00 +27°C° 0 mm 2 mps 619 mmHg 34%
    14:00 +27°C° 0 mm 2 mps 619 mmHg 35%
    15:00 +27°C° 0 mm 2 mps 619 mmHg 37%
    16:00 +26°C° 0 mm 2 mps 618 mmHg 43%
    17:00 +25°C° 0 mm 2 mps 617 mmHg 50%
    18:00 +23°C° 0 mm 1 mps 617 mmHg 56%
    19:00 +21°C° 0 mm 1 mps 616 mmHg 60%
    20:00 +19°C° 0 mm 1 mps 616 mmHg 63%
    21:00 +16°C° 0 mm 1 mps 615 mmHg 66%
    22:00 +16°C° 0 mm 1 mps 615 mmHg 66%
    23:00 +16°C° 0 mm 1 mps 615 mmHg 65%

    22 July, Monday

    Time Temperature Precipitation Wind Pressure Humidity
    00:00 +15°C° 0 mm 1 mps 615 mmHg 65%
    01:00 +15°C° 0 mm 1 mps 615 mmHg 62%
    02:00 +16°C° 0 mm 2 mps 614 mmHg 59%
    03:00 +16°C° 0 mm 2 mps 614 mmHg 56%
    04:00 +16°C° 0 mm 1 mps 614 mmHg 56%
    05:00 +18°C° 0 mm 1 mps 615 mmHg 55%
    06:00 +19°C° 0 mm 1 mps 615 mmHg 55%
    07:00 +21°C° 0 mm 1 mps 616 mmHg 49%
    08:00 +24°C° 0 mm 1 mps 617 mmHg 43%
    09:00 +26°C° 0 mm 1 mps 618 mmHg 37%
    10:00 +27°C° 0 mm 2 mps 619 mmHg 35%
    11:00 +28°C° 0 mm 2 mps 619 mmHg 33%
    12:00 +28°C° 0 mm 2 mps 619 mmHg 31%
    13:00 +28°C° 0 mm 2 mps 618 mmHg 31%
    14:00 +28°C° 0 mm 2 mps 618 mmHg 32%
    15:00 +28°C° 0 mm 3 mps 618 mmHg 32%
    16:00 +26°C° 0.4 mm 2 mps 617 mmHg 42%
    17:00 +24°C° 0.4 mm 2 mps 616 mmHg 51%
    18:00 +22°C° 0.4 mm 1 mps 616 mmHg 60%
    19:00 +21°C° 0 mm 1 mps 615 mmHg 60%
    20:00 +19°C° 0 mm 1 mps 615 mmHg 61%
    21:00 +16°C° 0 mm 1 mps 614 mmHg 61%
    22:00 +16°C° 0 mm 1 mps 614 mmHg 59%
    23:00 +16°C° 0 mm 1 mps 614 mmHg 57%
    Show more